DW5513 Weather Reports


time (UTC)temp
F
wind
direction
speed
knots
gust
knots
rain 1hr
in
rain 24hr
in
rain mn
in
humidity
%
barometer
mb
20260506161535 51 237 0.0 5.2 0.05 0.43 0.20 95 1006.3
20260506160036 53 250 0.0 3.5 0.02 0.40 0.17 96 1006.2
20260506154634 53 212 0.0 0.9 0.02 0.39 0.16 96 1006.1
20260506153029 53 245 0.0 0.9 0.02 0.38 0.15 96 1006.1
20260506151530 53 268 0.0 0.9 0.04 0.38 0.15 97 1006.1
20260506150028 52 268 0.0 0.9 0.06 0.38 0.15 97 1006.2
20260506144528 51 268 0.0 0.9 0.07 0.37 0.14 97 1006.3
20260506143024 51 168 0.0 2.6 0.08 0.36 0.13 97 1006.6
20260506141529 51 160 0.0 1.7 0.06 0.34 0.11 97 1006.9
20260506140022 51 148 0.0 1.7 0.04 0.32 0.09 97 1007.0
20260506134521 51 263 0.0 0.9 0.02 0.30 0.07 97 1007.1
20260506133024 51 231 0.0 0.9 0.00 0.28 0.05 97 1007.0
20260506131520 51 77 0.0 0.9 0.00 0.28 0.05 97 1006.8
20260506130020 50 76 0.0 0.9 0.01 0.28 0.05 97 1006.6
20260506124618 50 20 0.0 0.9 0.01 0.28 0.05 97 1006.9
20260506123018 50 75 0.0 0.9 0.02 0.28 0.05 97 1006.9
20260506121517 50 127 0.0 0.9 0.02 0.28 0.05 97 1007.1
20260506120034 49 127 0.0 0.9 0.02 0.27 0.04 97 1007.3
20260506114518 49 170 0.0 0.9 0.02 0.27 0.04 97 1007.7
20260506113015 50 244 0.0 0.9 0.01 0.26 0.03 97 1007.9
20260506111514 49 149 0.0 0.0 0.01 0.26 0.03 97 1007.7
20260506110013 49 157 0.0 0.9 0.00 0.25 0.02 97 1007.6
20260506104525 49 255 0.0 1.7 0.01 0.25 0.02 97 1007.5
20260506103033 49 242 0.0 1.7 0.02 0.25 0.02 97 1007.5
20260506101510 49 83 0.9 7.0 0.02 0.25 0.02 97 1007.1
20260506100008 49 229 0.0 0.9 0.02 0.26 0.02 97 1007.6
20260506094510 49 309 0.0 0.9 0.01 0.25 0.01 97 1007.8
20260506093016 49 244 0.0 2.6 0.00 0.24 0.00 96 1007.7
20260506091505 50 238 0.0 1.7 0.00 0.24 0.00 96 1007.6
20260506090004 50 195 0.0 0.9 0.00 0.24 0.00 96 1007.3
20260506084634 50 168 0.0 0.9 0.00 0.24 0.00 96 1007.3
20260506083058 50 167 0.0 0.0 0.00 0.24 0.00 96 1007.5
20260506081600 50 168 0.0 0.0 0.00 0.24 0.00 96 1007.8
20260506073151 50 242 0.0 0.9 0.00 0.24 0.00 96 1008.2
20260506071549 50 241 0.0 0.9 0.00 0.24 0.00 96 1008.4
20260506061543 51 273 0.0 0.0 0.00 0.24 0.00 95 1009.0
20260506044537 52 250 0.0 0.9 0.00 0.24 0.00 93 1009.6
20260506043030 52 250 0.0 0.9 0.00 0.24 0.00 93 1009.6
20260506041529 53 250 0.0 0.9 0.00 0.24 0.00 92 1009.4
20260506040032 53 250 0.0 0.0 0.00 0.24 0.00 91 1009.8
20260506034524 53 250 0.0 0.9 0.00 0.24 0.24 91 1009.8
20260506033023 53 127 0.0 0.0 0.00 0.24 0.24 92 1009.6
20260506031523 53 228 0.0 0.9 0.00 0.24 0.24 92 1010.1
20260506030021 54 219 0.0 0.9 0.00 0.24 0.24 92 1009.4
20260506024521 54 164 0.0 0.9 0.00 0.24 0.24 92 1009.6
20260506023034 54 164 0.0 1.7 0.00 0.24 0.24 92 1009.5
20260506021532 54 161 0.0 1.7 0.00 0.24 0.24 92 1009.3
20260506020025 54 243 0.0 1.7 0.00 0.24 0.24 91 1009.0
20260506014518 55 1 0.0 2.6 0.01 0.24 0.24 89 1008.8
20260506013018 55 319 0.9 5.2 0.02 0.24 0.24 88 1009.3
20260506011513 56 51 1.7 7.0 0.04 0.24 0.24 88 1009.0
20260506010013 58 343 0.0 9.6 0.04 0.24 0.24 90 1007.8
20260506004511 59 299 0.9 5.2 0.03 0.23 0.23 92 1008.0
20260506003007 59 325 1.7 8.7 0.02 0.22 0.22 97 1007.5
20260506001502 59 249 0.0 0.9 0.00 0.20 0.20 96 1007.2
20260505234600 60 178 0.0 1.7 0.00 0.20 0.20 96 1006.4
20260505233105 60 73 0.0 1.7 0.00 0.20 0.20 96 1006.3
20260505231609 61 70 0.0 1.7 0.00 0.20 0.20 96 1006.3
20260505230055 61 227 0.0 0.9 0.00 0.20 0.20 96 1006.1
20260505224557 61 227 0.0 0.9 0.00 0.20 0.20 96 1006.2
20260505223056 60 184 0.0 0.0 0.00 0.20 0.20 97 1006.0
20260505221559 60 97 0.0 0.9 0.00 0.20 0.20 97 1005.9
20260505220058 60 15 0.0 1.7 0.00 0.20 0.20 97 1005.7
20260505214557 60 208 0.0 0.9 0.00 0.20 0.20 96 1005.9
20260505213051 60 208 0.0 1.7 0.00 0.20 0.20 96 1006.2
20260505211550 60 163 0.0 0.9 0.05 0.20 0.20 96 1006.4
20260505210049 59 161 0.0 1.7 0.12 0.20 0.20 95 1006.1
20260505204549 59 96 0.0 0.9 0.15 0.20 0.20 95 1005.8
20260505203106 58 253 0.0 1.7 0.15 0.20 0.20 93 1006.3
20260505201552 59 323 1.7 10.4 0.09 0.14 0.14 89 1006.7
20260505200051 61 18 3.5 9.6 0.03 0.08 0.08 84 1006.1
20260505194544 68 313 6.1 14.8 0.00 0.05 0.05 70 1005.9
20260505193044 68 235 2.6 5.2 0.03 0.05 0.05 67 1004.4
20260505191545 66 247 0.0 2.6 0.04 0.05 0.05 71 1004.5
20260505190042 64 242 0.0 3.5 0.04 0.05 0.05 74 1004.9
20260505184542 66 143 3.5 12.2 0.04 0.05 0.05 69 1005.4
20260505183040 70 264 4.3 12.2 0.00 0.01 0.01 61 1004.9
20260505181543 74 241 3.5 8.7 0.00 0.01 0.01 52 1004.1
20260505180039 76 326 2.6 8.7 0.00 0.01 0.01 49 1003.6
20260505174541 77 288 4.3 12.2 0.00 0.01 0.01 45 1003.6
20260505173034 77 253 4.3 13.0 0.00 0.01 0.01 44 1003.5
20260505171533 77 236 0.9 4.3 0.00 0.01 0.01 47 1003.7
20260505170038 76 224 1.7 9.6 0.00 0.01 0.01 46 1003.6
20260505164529 77 217 4.3 11.3 0.00 0.01 0.01 46 1003.9
20260505163030 76 264 4.3 8.7 0.00 0.01 0.01 47 1004.2